Location: Chateh
(58.6667°N, 118.6000°W)
Time: 09:39:36
(UTC+00:00)

PCSat - Pass Details

Date: 08 December 2023
Orbit: 784 x 791 km, 67.0° (Epoch: 01 March)

Event Time Altitude Azimuth Distance (km) Brightness Sun altitude
Exits shadow 12:38:19 81° 99° (E) 806 9.5 -28.0°
Drops below altitude 10° 12:43:35 10° 48° (NE) 2,364 12.6 -27.3°
Sets 12:46:00 0° 48° (NE) 3,297 13.5 -27.0°
